Regional Weather Roundup
Issued by NWS

Home | Current Version | Previous Version | Text Only | Print | Product List | Glossary Off
Versions: 1 2 3 4 5 6 7 8 9 10 11 12 13 14 15 16 17 18 19 20 21 22 23 24 25 26 27 28 29 30 31 32 33 34 35 36 37 38 39 40 41 42 43 44 45 46 47 48 49 50

000
ASUS45 KSLC 281610
RWRUT

UTAH REGIONAL WEATHER ROUNDUP
NATIONAL WEATHER SERVICE SALT LAKE CITY UT
1000 AM MDT SUN MAY 28 2017

UTZ001>011-023>025-281700-

NORTHERN UTAH

CITY           SKY/WX    TMP DP  RH WIND       PRES   REMARKS
BRIGHAM CITY   SUNNY     64  37  38 N3        30.28R
HILL AFB       SUNNY     60  39  45 E12       30.28R
LOGAN          SUNNY     58  41  53 CALM      30.30F
OGDEN          SUNNY     62  37  39 SW6       30.27R
SALT LAKE CITY SUNNY     67  38  34 N6        30.26R
TOOELE VALLEY  SUNNY     64  41  42 CALM      30.27S
WENDOVER       SUNNY     65  32  29 VRB5      30.28R
WEST JORDAN    SUNNY     63  44  51 CALM      30.28S

$$

UTZ011>015-024>027-281700-

CENTRAL/NORTHEAST UTAH

CITY           SKY/WX    TMP DP  RH WIND       PRES   REMARKS
PROVO AIRPORT  SUNNY     60  40  47 VRB5      30.29S
MOAB/CANYONLAN SUNNY     70  27  20 E13       30.24S
DELTA          SUNNY     63  32  31 N3        30.27S
PRICE          SUNNY     62  26  25 CALM      30.32S
ROOSEVELT      SUNNY     63  30  29 CALM      30.35S
VERNAL         SUNNY     62  30  29 CALM      30.32F

$$

UTZ013>016-019>022-027-281700-

SOUTHERN UTAH

CITY           SKY/WX    TMP DP  RH WIND       PRES   REMARKS
BRYCE CANYON   SUNNY     55  26  32 CALM      30.37S
CEDAR CITY     SUNNY     61  29  29 VRB5      30.27F
MILFORD        SUNNY     64  28  25 N8        30.27S
ST GEORGE      SUNNY     74  29  19 CALM      30.13F
HANKSVILLE     SUNNY     68  27  21 CALM      30.28S
BLANDING       SUNNY     65  23  20 NE13G21   30.35S

$$

REGIONAL REPORTS     COLORADO/ARIZONA

CITY           SKY/WX    TMP DP  RH WIND       PRES   REMARKS
CRAIG, CO      SUNNY     54  35  48 NE5       30.36F
GRAND JUNCTION SUNNY     63  29  27 VRB6      30.29F
RIFLE, CO      SUNNY     57  34  41 VRB3      30.34F
MONTROSE, CO   SUNNY     58  30  34 N6        30.33F
CORTEZ, CO     SUNNY     60  26  27 SW5       30.28F
COLORADO CITY    N/A     77  27  15 E12G21    30.23S
PAGE, AZ       SUNNY     72  26  18 NE7       30.21S
GRAND CANYON   SUNNY     65  22  19 NE16G22   30.30R
KINGMAN, AZ    SUNNY     79  26  14 NE6       30.10R
FLAGSTAFF, AZ  SUNNY     63  20  19 NE17G26   30.30R

$$

REGIONAL REPORTS    NEVADA/IDAHO/WYOMING

CITY           SKY/WX    TMP DP  RH WIND       PRES   REMARKS
LAS VEGAS, NV  SUNNY     82  25  12 NE6       30.05R
ELY, NY        SUNNY     58  28  32 NE6       30.32F
ELKO, NV       SUNNY     62  32  32 VRB3      30.28F
POCATELLO, ID  SUNNY     61  42  49 CALM      30.30S
BURLEY, ID     SUNNY     60  43  53 CALM      30.26F
FORT BRIDGER,    N/A     56  32  41 NE3       30.41S
EVANSTON, WY   SUNNY     55  33  43 E5        30.37S
ROCK SPRINGS,  SUNNY     54  32  43 CALM      30.37S
KEMMERER, WY     N/A     54  30  40 CALM      30.39F

$$



USA.gov is the U.S. government's official web portal to all federal, state and local government web resources and services.